Regional Weather Roundup
Issued by NWS Cleveland, OH

Home | Current Version | Previous Version | Graphics & Text | Print | Product List | Glossary On
Versions: 1 2 3 4 5 6 7 8 9 10 11 12 13 14 15 16 17 18 19 20 21 22 23 24 25 26 27 28 29 30 31 32 33 34 35 36 37 38 39 40 41 42 43 44 45 46 47 48 49 50
697
ASUS41 KCLE 231900
RWRCLE
OHIO REGIONAL WEATHER ROUNDUP
NATIONAL WEATHER SERVICE WILMINGTON, OH
200 PM EST THU FEB 23 2017

NOTE: "FAIR" INDICATES FEW OR NO CLOUDS BELOW 12,000 FEET WITH NO
SIGNIFICANT WEATHER AND/OR OBSTRUCTIONS TO VISIBILITY.

OHZ001>008-015>018-024>027-034-035-043-044-232000-
   NORTHWEST OHIO

CITY           SKY/WX    TMP DP  RH WIND       PRES   REMARKS
DEFIANCE       FAIR      65  46  50 W5        29.73F
FINDLAY        PTSUNNY   64  51  62 W12       29.74F
TOLEDO EXPRESS FAIR      66  47  50 W8        29.72F
TOLEDO EXEC    FAIR      67  49  52 SW12      29.73F
LIMA           CLOUDY    62  56  80 SW12      29.75F
$$

OHZ009>014-019>023-028>033-038-089-232000-
   NORTHEAST OHIO

CITY           SKY/WX    TMP DP  RH WIND       PRES   REMARKS
CLE-HOPKINS    CLOUDY    67  53  61 W15       29.77S
CLE-LAKEFRONT  PTSUNNY   56  48  74 W10       29.75R
CUY CO. ARPT   PTSUNNY   66  55  68 SW14G23   29.77R
LORAIN-ELYRIA  PTSUNNY   64  52  64 W18       29.76R
ASHTABULA      CLOUDY    65  54  67 W17       29.75S
AKRON-CANTON   CLOUDY    66  54  65 SW14G24   29.77S
WOOSTER        NOT AVBL
MANSFIELD      FAIR      65  55  70 SW14      29.76F
YOUNGSTOWN     CLOUDY    64  53  67 SW13G20   29.76S
$$

OHZ042-051>053-060>062-070>072-077>081-232000-
  SOUTHWEST OHIO

CITY           SKY/WX    TMP DP  RH WIND       PRES   REMARKS
CINC-COVINGTON CLOUDY    69  56  62 SW9       29.76F
CINC-LUNKEN    PTSUNNY   69  58  67 SW9       29.76F
HAMILTON       CLOUDY    72  58  61 S8        29.76F
DAYTON         NOT AVBL
WRIGHT-PAT AFB NOT AVBL
DAYTON GENERAL FAIR      68  56  65 SW10      29.75F
WILMINGTON     PTSUNNY   65  56  72 SW13      29.77F
$$

OHZ036-037-039>041-045>050-054>059-063>069-073>076-082>088-232000-
  CENTRAL AND SOUTHEAST OHIO

CITY           SKY/WX    TMP DP  RH WIND       PRES   REMARKS
COLUMBUS       PTSUNNY   71  55  56 SW14      29.76F
OSU AIRPORT    PTSUNNY   67  57  70 S10       29.76F
BOLTON FIELD   PTSUNNY   70  57  64 SW16      29.78F
RICKENBACK AFB NOT AVBL
NEWARK         PTSUNNY   69  55  60 SW16G23   29.76F
MARION         PTSUNNY   67  54  63 W15       29.76F
LANCASTER      PTSUNNY   71  57  61 SW10G17   29.78F
ZANESVILLE     CLOUDY    69  54  58 SW9       29.78F
NEW PHILLY     CLOUDY    67  55  65 SW8       29.78F
$$




USA.gov is the U.S. government's official web portal to all federal, state and local government web resources and services.